When you browse on this site, cookies collect data to enhance your experience and personalize the content and advertising you see.
Visit our Privacy Policy to learn more. By continuing to use the site, you agree to this use of cookies and data.
EN

Hourly Weather Postol'ne

Today, 6 August, Thursday

Time Temperature Precipitation Wind Pressure Humidity
00:00 +19°C° 0 mm 3 mps 748 mmHg 74%
01:00 +18°C° 0 mm 3 mps 748 mmHg 74%
02:00 +18°C° 0 mm 3 mps 748 mmHg 73%
03:00 +18°C° 0 mm 3 mps 748 mmHg 74%
04:00 +18°C° 0 mm 3 mps 748 mmHg 75%
05:00 +18°C° 0 mm 3 mps 748 mmHg 75%
06:00 +20°C° 0 mm 3 mps 749 mmHg 70%
07:00 +22°C° 0 mm 3 mps 749 mmHg 66%
08:00 +25°C° 0 mm 4 mps 749 mmHg 60%
09:00 +26°C° 0 mm 4 mps 749 mmHg 56%
10:00 +28°C° 0 mm 4 mps 749 mmHg 52%
11:00 +29°C° 0 mm 4 mps 749 mmHg 47%
12:00 +29°C° 0 mm 4 mps 749 mmHg 47%
13:00 +30°C° 0 mm 4 mps 749 mmHg 47%
14:00 +32°C° 0 mm 4 mps 749 mmHg 45%
15:00 +30°C° 0 mm 4 mps 749 mmHg 48%
16:00 +30°C° 0 mm 4 mps 749 mmHg 50%
17:00 +29°C° 0 mm 3 mps 749 mmHg 53%
18:00 +27°C° 0 mm 3 mps 749 mmHg 58%
19:00 +25°C° 0 mm 3 mps 749 mmHg 64%
20:00 +24°C° 0 mm 3 mps 749 mmHg 69%
21:00 +22°C° 0 mm 3 mps 749 mmHg 70%
22:00 +21°C° 0 mm 3 mps 749 mmHg 72%
23:00 +20°C° 0 mm 3 mps 749 mmHg 73%

Tomorrow, 7 August, Friday

Time Temperature Precipitation Wind Pressure Humidity
00:00 +20°C° 0 mm 3 mps 749 mmHg 74%
01:00 +20°C° 0 mm 3 mps 750 mmHg 75%
02:00 +19°C° 0 mm 3 mps 750 mmHg 77%
03:00 +19°C° 0 mm 3 mps 750 mmHg 78%
04:00 +19°C° 0 mm 3 mps 750 mmHg 79%
05:00 +18°C° 0 mm 3 mps 750 mmHg 80%
06:00 +20°C° 0 mm 3 mps 750 mmHg 75%
07:00 +22°C° 0 mm 3 mps 750 mmHg 69%
08:00 +25°C° 0 mm 3 mps 750 mmHg 63%
09:00 +27°C° 0 mm 4 mps 750 mmHg 59%
10:00 +28°C° 0 mm 4 mps 750 mmHg 55%
11:00 +29°C° 0 mm 4 mps 750 mmHg 51%
12:00 +30°C° 0 mm 4 mps 750 mmHg 51%
13:00 +30°C° 0 mm 4 mps 750 mmHg 52%
14:00 +30°C° 0 mm 4 mps 750 mmHg 53%
15:00 +30°C° 0 mm 5 mps 749 mmHg 54%
16:00 +29°C° 0 mm 5 mps 749 mmHg 54%
17:00 +28°C° 0 mm 5 mps 749 mmHg 55%
18:00 +26°C° 0 mm 5 mps 749 mmHg 61%
19:00 +25°C° 0 mm 4 mps 749 mmHg 66%
20:00 +22°C° 0 mm 4 mps 749 mmHg 72%
21:00 +21°C° 0 mm 4 mps 749 mmHg 74%
22:00 +20°C° 0 mm 4 mps 749 mmHg 76%
23:00 +19°C° 0 mm 4 mps 749 mmHg 78%

Day after tomorrow, 8 August, Saturday

Time Temperature Precipitation Wind Pressure Humidity
00:00 +19°C° 0 mm 4 mps 749 mmHg 79%
01:00 +18°C° 0 mm 4 mps 749 mmHg 79%
02:00 +18°C° 0 mm 3 mps 749 mmHg 80%
03:00 +17°C° 0 mm 4 mps 749 mmHg 81%
04:00 +17°C° 0 mm 4 mps 749 mmHg 82%
05:00 +15°C° 0 mm 4 mps 749 mmHg 84%
06:00 +18°C° 0 mm 4 mps 749 mmHg 77%
07:00 +20°C° 0 mm 4 mps 749 mmHg 70%
08:00 +22°C° 0 mm 5 mps 749 mmHg 63%
09:00 +23°C° 0 mm 5 mps 749 mmHg 59%
10:00 +25°C° 0 mm 5 mps 749 mmHg 54%
11:00 +26°C° 0 mm 5 mps 749 mmHg 49%
12:00 +27°C° 0 mm 5 mps 748 mmHg 49%
13:00 +27°C° 0 mm 5 mps 748 mmHg 48%
14:00 +27°C° 0 mm 5 mps 748 mmHg 47%
15:00 +27°C° 0 mm 5 mps 748 mmHg 49%
16:00 +27°C° 0 mm 5 mps 747 mmHg 50%
17:00 +26°C° 0 mm 5 mps 747 mmHg 52%
18:00 +23°C° 0 mm 4 mps 747 mmHg 58%
19:00 +22°C° 0 mm 4 mps 747 mmHg 65%
20:00 +20°C° 0 mm 3 mps 747 mmHg 71%
21:00 +19°C° 0 mm 3 mps 747 mmHg 73%
22:00 +18°C° 0 mm 3 mps 747 mmHg 74%
23:00 +18°C° 0 mm 3 mps 747 mmHg 75%

9 August, Sunday

Time Temperature Precipitation Wind Pressure Humidity
00:00 +17°C° 0 mm 3 mps 747 mmHg 76%
01:00 +17°C° 0 mm 3 mps 747 mmHg 78%
02:00 +17°C° 0 mm 3 mps 747 mmHg 79%
03:00 +16°C° 0 mm 2 mps 747 mmHg 81%
04:00 +16°C° 0 mm 2 mps 746 mmHg 83%
05:00 +16°C° 0 mm 2 mps 746 mmHg 85%
06:00 +18°C° 0 mm 3 mps 746 mmHg 78%
07:00 +20°C° 0 mm 3 mps 746 mmHg 71%
08:00 +24°C° 0 mm 3 mps 746 mmHg 64%
09:00 +25°C° 0 mm 4 mps 746 mmHg 60%
10:00 +26°C° 0 mm 4 mps 746 mmHg 57%
11:00 +27°C° 0 mm 4 mps 746 mmHg 53%
12:00 +27°C° 0.2 mm 4 mps 746 mmHg 52%
13:00 +27°C° 0.2 mm 4 mps 745 mmHg 50%
14:00 +28°C° 0.2 mm 4 mps 745 mmHg 49%
15:00 +27°C° 0 mm 4 mps 745 mmHg 51%
16:00 +27°C° 0 mm 4 mps 745 mmHg 53%
17:00 +27°C° 0 mm 4 mps 745 mmHg 54%
18:00 +25°C° 0 mm 3 mps 745 mmHg 61%
19:00 +22°C° 0 mm 3 mps 745 mmHg 68%
20:00 +20°C° 0 mm 2 mps 745 mmHg 75%
21:00 +20°C° 0 mm 2 mps 745 mmHg 76%
22:00 +19°C° 0 mm 2 mps 745 mmHg 77%
23:00 +18°C° 0 mm 2 mps 745 mmHg 77%

10 August, Monday

Time Temperature Precipitation Wind Pressure Humidity
00:00 +18°C° 0 mm 2 mps 745 mmHg 78%
01:00 +17°C° 0 mm 2 mps 745 mmHg 79%
02:00 +17°C° 0 mm 2 mps 745 mmHg 79%
03:00 +17°C° 0 mm 2 mps 745 mmHg 80%
04:00 +17°C° 0 mm 2 mps 745 mmHg 80%
05:00 +17°C° 0 mm 2 mps 745 mmHg 80%
06:00 +19°C° 0 mm 2 mps 745 mmHg 74%
07:00 +20°C° 0 mm 2 mps 745 mmHg 68%
08:00 +23°C° 0 mm 2 mps 745 mmHg 61%
09:00 +25°C° 0 mm 2 mps 745 mmHg 57%
10:00 +26°C° 0 mm 2 mps 745 mmHg 54%
11:00 +27°C° 0 mm 3 mps 745 mmHg 50%
12:00 +28°C° 0 mm 3 mps 745 mmHg 48%
13:00 +28°C° 0 mm 3 mps 745 mmHg 47%
14:00 +29°C° 0 mm 3 mps 744 mmHg 46%
15:00 +28°C° 0 mm 3 mps 744 mmHg 48%
16:00 +28°C° 0 mm 3 mps 744 mmHg 51%
17:00 +27°C° 0 mm 3 mps 744 mmHg 53%
18:00 +25°C° 0.1 mm 3 mps 744 mmHg 62%
19:00 +24°C° 0.1 mm 3 mps 744 mmHg 70%
20:00 +21°C° 0.1 mm 2 mps 744 mmHg 78%
21:00 +20°C° 0 mm 2 mps 744 mmHg 80%
22:00 +19°C° 0 mm 2 mps 744 mmHg 82%
23:00 +19°C° 0 mm 2 mps 744 mmHg 85%

11 August, Tuesday

Time Temperature Precipitation Wind Pressure Humidity
00:00 +18°C° 0 mm 2 mps 744 mmHg 83%
01:00 +18°C° 0 mm 2 mps 744 mmHg 81%
02:00 +18°C° 0 mm 2 mps 744 mmHg 79%
03:00 +17°C° 0 mm 2 mps 744 mmHg 79%
04:00 +18°C° 0 mm 1 mps 744 mmHg 78%
05:00 +18°C° 0 mm 1 mps 744 mmHg 78%
06:00 +20°C° 0 mm 1 mps 744 mmHg 72%
07:00 +21°C° 0 mm 2 mps 745 mmHg 65%
08:00 +23°C° 0 mm 2 mps 745 mmHg 59%
09:00 +25°C° 0 mm 2 mps 745 mmHg 54%
10:00 +26°C° 0 mm 2 mps 745 mmHg 49%
11:00 +27°C° 0 mm 2 mps 745 mmHg 45%
12:00 +28°C° 0 mm 2 mps 744 mmHg 42%
13:00 +29°C° 0 mm 2 mps 744 mmHg 40%
14:00 +29°C° 0 mm 1 mps 744 mmHg 37%
15:00 +29°C° 0 mm 1 mps 744 mmHg 38%
16:00 +29°C° 0 mm 1 mps 744 mmHg 40%
17:00 +29°C° 0 mm 1 mps 743 mmHg 41%
18:00 +27°C° 0 mm 1 mps 743 mmHg 45%
19:00 +25°C° 0 mm 1 mps 743 mmHg 49%
20:00 +23°C° 0 mm 1 mps 743 mmHg 53%
21:00 +22°C° 0.3 mm 1 mps 743 mmHg 57%
22:00 +21°C° 0.3 mm 1 mps 743 mmHg 61%
23:00 +21°C° 0.3 mm 1 mps 743 mmHg 65%
Show more